Bradshaw AFB, HI

8:09 PM HST on October 16, 2017 (GMT -1000)
Bradshaw Army Air Field

Weather History for PHSF - March, 2014

Change the Weather History Date:

Sunday, March 2, 2014

  Actual Average Record
Temperature  
Mean Temperature 51 °F -  
Max Temperature 57 °F 64 °F 69 °F (2006)
Min Temperature 45 °F 42 °F 30 °F (2005)
Degree Days  
Heating Degree Days 14    
Growing Degree Days 1 (Base 50)    
Moisture  
Dew Point 50 °F    
Average Humidity 96    
Maximum Humidity 100    
Minimum Humidity 76    
Precipitation  
Precipitation 0.89 in - - ()
Sea Level Pressure  
Sea Level Pressure 30.18 in    
Wind  
Wind Speed 5 mph (West)    
Max Wind Speed 21 mph    
Max Gust Speed 28 mph    
Visibility 4 miles    
Events Fog , Rain    
Averages and records for this station are not official NWS values.
T = Trace of Precipitation, MM = Missing Value Source: NWS Daily Summary

Daily Weather History Graph

Daily Weather History Graph

Search for Another Location

Airport or City:

Trip Planner

Search our weather history database for the weather conditions in past years. The results will help you decide how hot, cold, wet, or windy it might be!

Date:

Astronomy

Mar. 02, 2014 Rise Set
Actual Time 6:40 AM HST 6:27 PM HST
Civil Twilight 6:18 AM HST 6:49 PM HST
Nautical Twilight 5:53 AM HST 7:15 PM HST
Astronomical Twilight 5:27 AM HST 7:41 PM HST
Moon 7:37 AM HST (3/2) 8:13 PM HST (3/2)
Length of Visible Light 12h 31m
Length of Day
11h 46m
Waxing Crescent, 3% of the Moon is Illuminated
Mar 2
Waxing Crescent
Mar 8
First Quarter
Mar 16
Full
Mar 23
Last Quarter
Mar 30
New

Hourly Weather History & Observations

Time (HST) Temp. Windchill Dew Point Humidity Pressure Visibility Wind Dir Wind Speed Gust Speed Precip Events Conditions
12:01 AM 51.8 °F - 51.8 °F 100% 30.26 in 1.0 mi WSW 2.3 mph - N/A   Mostly Cloudy
12:06 AM 51.8 °F - 51.8 °F 100% 30.27 in 0.2 mi West 3.5 mph - N/A Fog Fog
12:16 AM 50.0 °F - 50.0 °F 100% 30.27 in 0.9 mi NNW 2.3 mph - N/A Fog Patches of Fog
12:21 AM 51.8 °F - 50.0 °F 94% 30.26 in 1.6 mi NNW 2.3 mph - N/A Fog Patches of Fog
12:26 AM 51.8 °F - 51.8 °F 100% 30.26 in 0.6 mi NNW 2.3 mph - N/A Fog Patches of Fog
12:29 AM 51.8 °F - 51.8 °F 100% 30.26 in 0.5 mi NW 4.6 mph - N/A Fog , Rain Light Rain
12:30 AM 51.8 °F - 51.8 °F 100% 30.26 in 0.5 mi NNW 4.6 mph - N/A Fog Patches of Fog
12:40 AM 51.8 °F - 51.8 °F 100% 30.26 in 0.2 mi NW 4.6 mph - N/A Fog Heavy Drizzle
12:56 AM 51.4 °F - 51.3 °F 99% 29.91 in 0.2 mi NNW 1.2 mph - N/A Fog , Rain Light Rain Showers
1:31 AM 50.0 °F - 50.0 °F 100% 30.23 in 1.0 mi ESE 1.2 mph - N/A Rain Light Rain Showers
1:36 AM 50.0 °F - 50.0 °F 100% 30.23 in 1.4 mi SSW 2.3 mph - N/A Rain Light Rain Showers
1:37 AM 50.0 °F - 50.0 °F 100% 30.23 in 1.6 mi SSW 2.3 mph - N/A   Scattered Clouds
1:46 AM 50.0 °F - 50.0 °F 100% 30.23 in 0.4 mi SW 2.3 mph - N/A Fog , Rain Light Rain Showers
1:56 AM 48.4 °F - 48.2 °F 99% 29.92 in 0.2 mi North 3.5 mph - N/A Fog , Rain Light Rain Showers
2:01 AM 50.0 °F - 48.2 °F 94% 30.24 in 0.4 mi North 2.3 mph - N/A Fog Patches of Fog
2:06 AM 50.0 °F - 50.0 °F 100% 30.24 in 0.4 mi NNE 3.5 mph - N/A Fog Patches of Fog
2:11 AM 50.0 °F - 50.0 °F 100% 30.23 in 0.8 mi NE 3.5 mph - N/A Fog Patches of Fog
2:16 AM 50.0 °F - 50.0 °F 100% 30.22 in 2.8 mi East 2.3 mph - N/A Fog Patches of Fog
2:21 AM 50.0 °F - 50.0 °F 100% 30.22 in 6.0 mi East 1.2 mph - N/A Fog Fog
2:56 AM 48.2 °F - 48.0 °F 99% 29.91 in 12.0 mi ESE 2.3 mph - N/A   Clear
3:46 AM 50.0 °F - 50.0 °F 100% 30.22 in 0.3 mi WNW 1.2 mph - N/A Fog Fog
3:47 AM 50.0 °F - 50.0 °F 100% 30.22 in 0.2 mi West 2.3 mph - N/A Fog , Rain Light Rain Showers
3:56 AM 49.6 °F - 49.6 °F 100% 29.90 in 0.2 mi Calm Calm - N/A Fog , Rain Light Rain Showers
4:04 AM 50.0 °F - 50.0 °F 100% 30.20 in 0.2 mi North 2.3 mph - N/A Fog Fog
4:14 AM 50.0 °F - 50.0 °F 100% 30.20 in 0.2 mi ESE 4.6 mph - N/A Fog Fog
4:40 AM 50.0 °F - 50.0 °F 100% 30.21 in 0.3 mi SSE 3.5 mph - N/A Fog Fog
4:45 AM 50.0 °F - 50.0 °F 100% 30.21 in 0.2 mi SSE 3.5 mph - N/A Fog Fog
4:50 AM 50.0 °F - 50.0 °F 100% 30.21 in 0.2 mi ESE 2.3 mph - N/A Fog Fog
4:55 AM 50.0 °F - 50.0 °F 100% 30.21 in 0.5 mi East 3.5 mph - N/A Fog Fog
4:56 AM 49.8 °F - 49.6 °F 99% 29.90 in 0.6 mi East 3.5 mph - N/A Fog Fog
5:01 AM 50.0 °F - 50.0 °F 100% 30.21 in 1.0 mi East 5.8 mph - N/A   Mostly Cloudy
5:06 AM 50.0 °F - 50.0 °F 100% 30.21 in 1.5 mi NNE 4.6 mph - N/A   Mostly Cloudy
5:11 AM 50.0 °F - 50.0 °F 100% 30.21 in 8.0 mi NNE 2.3 mph - N/A   Mostly Cloudy
5:16 AM 50.0 °F - 50.0 °F 100% 30.21 in 12.0 mi NNE 1.2 mph - N/A   Mostly Cloudy
5:56 AM 51.8 °F - 51.6 °F 99% 29.90 in 12.0 mi NW 3.5 mph - N/A   Mostly Cloudy
6:56 AM 54.1 °F - 51.3 °F 90% 29.93 in 12.0 mi West 4.6 mph - N/A   Mostly Cloudy
7:18 AM 55.4 °F - 51.8 °F 88% 30.23 in 11.0 mi West 4.6 mph - N/A Rain Light Rain
7:56 AM 53.4 °F - 51.4 °F 93% 29.95 in 7.0 mi WSW 3.5 mph - 0.01 in Rain Light Rain Showers
8:56 AM 56.8 °F - 52.5 °F 85% 29.94 in 10.0 mi East 2.3 mph - 0.04 in Rain Light Rain Showers
9:04 AM 57.2 °F - 51.8 °F 82% 30.25 in 12.0 mi SSW 2.3 mph - N/A   Mostly Cloudy
9:45 AM 57.2 °F - 51.8 °F 82% 30.26 in 12.0 mi WSW 3.5 mph - N/A Rain Light Rain Showers
9:56 AM 56.8 °F - 52.7 °F 86% 29.97 in 11.0 mi WSW 4.6 mph - N/A Rain Light Rain Showers
10:26 AM 55.4 °F - 53.6 °F 94% 30.28 in 4.0 mi West 9.2 mph - N/A Rain Rain Showers
10:31 AM 53.6 °F - 53.6 °F 100% 30.28 in 1.6 mi WSW 9.2 mph 18.4 mph N/A Rain Rain Showers
10:36 AM 53.6 °F - 53.6 °F 100% 30.28 in 1.1 mi WSW 9.2 mph 18.4 mph N/A Rain Rain Showers
10:41 AM 53.6 °F - 53.6 °F 100% 30.28 in 1.0 mi West 8.1 mph - N/A Rain Light Rain Showers
10:46 AM 53.6 °F - 53.6 °F 100% 30.28 in 1.1 mi West 8.1 mph - N/A Rain Rain
10:56 AM 53.4 °F - 53.1 °F 99% 29.99 in 1.2 mi West 9.2 mph - 0.13 in Rain Rain
11:06 AM 53.6 °F - 53.6 °F 100% 30.29 in 2.5 mi West 8.1 mph - N/A Rain Rain
11:11 AM 53.6 °F - 53.6 °F 100% 30.29 in 3.0 mi West 6.9 mph - N/A Rain Rain
11:16 AM 53.6 °F - 53.6 °F 100% 30.28 in 2.8 mi West 5.8 mph - N/A Rain Rain
11:21 AM 53.6 °F - 53.6 °F 100% 30.28 in 1.4 mi West 5.8 mph - N/A Rain Rain
11:31 AM 53.6 °F - 53.6 °F 100% 30.27 in 4.0 mi West 4.6 mph - N/A Rain Rain
11:51 AM 53.6 °F - 53.6 °F 100% 30.27 in 6.0 mi West 5.8 mph - N/A Rain Rain
11:56 AM 54.0 °F - 53.6 °F 99% 29.99 in 6.0 mi West 6.9 mph - 0.13 in Rain Rain
12:06 PM 55.4 °F - 55.4 °F 100% 30.26 in 6.0 mi West 6.9 mph - N/A Rain Light Rain
12:16 PM 55.4 °F - 55.4 °F 100% 30.25 in 6.0 mi WSW 4.6 mph - N/A Rain Light Rain
12:20 PM 57.2 °F - 55.4 °F 94% 30.25 in 5.0 mi West 4.6 mph - N/A   Mostly Cloudy
12:28 PM 55.4 °F - 55.4 °F 100% 30.25 in 7.0 mi WSW 3.5 mph - N/A Rain Light Rain Showers
12:56 PM 56.7 °F - 54.5 °F 92% 29.93 in 4.0 mi West 6.9 mph - 0.02 in Rain Light Rain Showers
1:11 PM 55.4 °F - 53.6 °F 94% 30.23 in 2.8 mi West 9.2 mph - N/A Rain Light Rain Showers
1:31 PM 53.6 °F - 53.6 °F 100% 30.23 in 2.0 mi West 8.1 mph - N/A Rain Heavy Rain
1:36 PM 53.6 °F - 51.8 °F 94% 30.23 in 1.1 mi West 15.0 mph 24.2 mph N/A Rain Heavy Rain
1:41 PM 53.6 °F - 51.8 °F 94% 30.22 in 1.0 mi West 18.4 mph 26.5 mph N/A Rain Heavy Rain
1:46 PM 53.6 °F - 50.0 °F 88% 30.22 in 2.2 mi West 17.3 mph 26.5 mph N/A Rain Rain
1:51 PM 53.6 °F - 50.0 °F 88% 30.22 in 3.0 mi West 15.0 mph 25.3 mph N/A Rain Rain
1:56 PM 53.4 °F - 49.3 °F 86% 29.94 in 4.0 mi West 13.8 mph 25.3 mph 0.21 in Rain Light Rain
2:08 PM 53.6 °F - 50.0 °F 88% 30.21 in 8.0 mi West 17.3 mph 23.0 mph N/A   Overcast
2:18 PM 53.6 °F - 48.2 °F 82% 30.21 in 7.0 mi West 16.1 mph 25.3 mph N/A   Mostly Cloudy
2:23 PM 53.6 °F - 50.0 °F 88% 30.22 in 6.0 mi West 16.1 mph 25.3 mph N/A Rain Light Rain Showers
2:56 PM 52.9 °F - 49.5 °F 88% 29.91 in 8.0 mi West 20.7 mph 26.5 mph 0.01 in Rain Light Rain Showers
3:06 PM 51.8 °F - 50.0 °F 94% 30.20 in 8.0 mi WSW 18.4 mph 26.5 mph N/A   Mostly Cloudy
3:56 PM 53.2 °F - 46.4 °F 78% 29.92 in 12.0 mi West 16.1 mph 27.6 mph N/A   Mostly Cloudy
4:11 PM 51.8 °F - 48.2 °F 88% 30.22 in 9.0 mi WSW 6.9 mph 16.1 mph N/A Rain Light Rain
4:16 PM 50.0 °F - 48.2 °F 94% 30.23 in 7.0 mi WSW 8.1 mph 16.1 mph N/A Rain Light Rain
4:31 PM 48.2 °F - 48.2 °F 100% 30.23 in 2.8 mi WSW 6.9 mph - N/A Rain Light Rain
4:56 PM 48.7 °F - 48.2 °F 98% 29.97 in 3.0 mi WSW 5.8 mph - 0.04 in Rain Light Rain
5:56 PM 49.3 °F - 48.0 °F 95% 29.96 in 3.0 mi West 9.2 mph - 0.02 in Rain Light Rain
6:16 PM 48.2 °F - 48.2 °F 100% 30.24 in 3.0 mi WSW 4.6 mph - N/A Rain Light Rain Showers
6:21 PM 48.2 °F - 48.2 °F 100% 30.25 in 2.8 mi WSW 4.6 mph - N/A Rain Light Rain Showers
6:31 PM 48.2 °F - 48.2 °F 100% 30.24 in 1.8 mi WSW 2.3 mph - N/A Rain Light Rain Showers
6:36 PM 48.2 °F - 48.2 °F 100% 30.24 in 1.8 mi WSW 3.5 mph - N/A Rain Light Rain Showers
6:41 PM 48.2 °F - 48.2 °F 100% 30.25 in 2.0 mi West 4.6 mph - N/A Rain Light Rain Showers
6:56 PM 48.7 °F - 48.2 °F 98% 29.96 in 2.8 mi West 4.6 mph - 0.05 in Rain Light Rain Showers
7:01 PM 48.2 °F - 48.2 °F 100% 30.24 in 3.0 mi West 4.6 mph - N/A Rain Light Rain Showers
7:11 PM 48.2 °F - 48.2 °F 100% 30.24 in 3.0 mi WSW 5.8 mph - N/A Rain Light Rain Showers
7:16 PM 48.2 °F - 48.2 °F 100% 30.24 in 4.0 mi WSW 8.1 mph - N/A Rain Light Rain
7:26 PM 48.2 °F - 48.2 °F 100% 30.24 in 2.5 mi WSW 4.6 mph - N/A Rain Light Rain
7:46 PM 48.2 °F - 48.2 °F 100% 30.25 in 2.8 mi WSW 5.8 mph - N/A Rain Light Rain
7:51 PM 48.2 °F - 48.2 °F 100% 30.25 in 2.8 mi WSW 5.8 mph - N/A Rain Light Rain
7:56 PM 48.9 °F - 48.6 °F 99% 29.98 in 2.5 mi WSW 4.6 mph - 0.05 in Rain Light Rain
8:01 PM 48.2 °F - 48.2 °F 100% 30.25 in 1.8 mi WSW 5.8 mph - N/A Rain Light Rain
8:06 PM 48.2 °F - 48.2 °F 100% 30.26 in 1.8 mi West 8.1 mph - N/A Rain Light Rain
8:11 PM 48.2 °F - 48.2 °F 100% 30.26 in 2.2 mi West 8.1 mph - N/A Rain Light Rain
8:26 PM 48.2 °F - 48.2 °F 100% 30.27 in 1.1 mi West 9.2 mph - N/A Rain Light Rain
8:31 PM 48.2 °F - 46.4 °F 93% 30.28 in 1.0 mi West 12.7 mph 19.6 mph N/A Rain Rain
8:36 PM 48.2 °F - 46.4 °F 93% 30.28 in 2.0 mi West 8.1 mph 19.6 mph N/A Rain Rain
8:41 PM 48.2 °F - 48.2 °F 100% 30.28 in 0.9 mi West 9.2 mph - N/A Rain Rain
8:46 PM 46.4 °F 41.5 °F 46.4 °F 100% 30.28 in 0.3 mi West 10.4 mph - N/A Fog , Rain Rain
8:56 PM 47.1 °F - 46.8 °F 99% 30.01 in 0.2 mi West 11.5 mph - 0.09 in Fog , Rain Light Rain
9:06 PM 48.2 °F - 44.6 °F 87% 30.29 in 3.0 mi West 16.1 mph 24.2 mph N/A Rain Light Rain
9:21 PM 48.2 °F - 41.0 °F 76% 30.28 in 8.0 mi WNW 13.8 mph 24.2 mph N/A Rain Light Rain
9:56 PM 49.5 °F - 42.8 °F 78% 29.99 in 7.0 mi West 10.4 mph - 0.03 in Rain Light Rain Showers
10:21 PM 46.4 °F 43.5 °F 44.6 °F 93% 30.30 in 4.0 mi SW 5.8 mph - N/A Rain Light Rain Showers
10:46 PM 46.4 °F - 44.6 °F 93% 30.30 in 3.0 mi West 2.3 mph - N/A Rain Rain
10:56 PM 45.5 °F 44.2 °F 44.1 °F 95% 30.02 in 5.0 mi SSW 3.5 mph - 0.06 in Rain Rain
11:10 PM 46.4 °F - 44.6 °F 93% 30.29 in 9.0 mi SW 2.3 mph - N/A Rain Light Rain
11:11 PM 46.4 °F - 44.6 °F 93% 30.29 in 9.0 mi SW 2.3 mph - N/A   Mostly Cloudy
11:56 PM 46.8 °F - 44.4 °F 92% 29.99 in 12.0 mi West 3.5 mph - N/A   Mostly Cloudy